[[{"header":{"parameterUnit":"m.s-1","parameterCategory":1,"la1":30.2991,"la2":30.254,"lo1":-89.0895,"lo2":-89.0444,"dy":0.0017,"dx":0.0017,"nx":28,"ny":28,"refTime":"2023-09-01T21:00:00:Z","depth":0,"parameterNumber":2,"parameterNumberName":"U-component_of_WINDS"},"data":[0,0,0,0,0,0,0,0,0,0,0,0,0,0,0,0,0,0,0,0,0,0,0,0,0,0,0,0,0,0,0,0,0,0,0,0,0,0,0,0,0,0,0,0,0,0,0,0,0,0,0,0,0,0,0,0,0,0,-0.4217,-0.4219,0,-0.4361,-0.4363,-0.4364,-0.4482,-0.4483,-0.4484,-0.4485,-0.4632,-0.4635,-0.4637,0,0,0,0,0,0,0,0,0,0,0,0,0,-0.4043,-0.4045,-0.4217,-0.4219,-0.422,-0.4361,-0.4363,-0.4365,-0.4481,-0.4483,-0.4484,-0.4486,-0.4631,-0.4634,-0.4638,0,0,0,0,0,0,0,0,0,0,0,0,0,-0.4145,-0.4046,-0.4217,-0.4296,-0.4304,-0.436,-0.4363,-0.4365,-0.4481,-0.4483,-0.4485,-0.4487,-0.463,-0.4634,-0.4638,-0.4627,0,0,-0.4651,-0.4653,0,0,0,0,0,0,0,0,-0.4139,-0.4152,-0.4282,-0.429,-0.43,-0.4405,-0.4355,-0.4453,-0.4481,-0.4414,-0.4485,-0.4487,-0.4555,-0.4566,-0.4588,-0.4634,-0.464,-0.4651,-0.4654,-0.4656,-0.4657,0,0,0,0,0,0,0,-0.4132,-0.4146,-0.4274,-0.4284,-0.4295,-0.4324,-0.434,-0.4374,-0.4472,-0.442,-0.4429,-0.4444,-0.456,-0.4584,-0.4593,-0.4642,-0.4651,-0.4655,-0.4657,-0.4659,-0.4685,-0.4684,0,0,0,0,0,0,-0.4113,-0.414,-0.4269,-0.4278,-0.4223,-0.4325,-0.4344,-0.437,-0.4472,-0.449,-0.4443,-0.4449,-0.4576,-0.4588,-0.4598,-0.4592,-0.4656,-0.4659,-0.4662,-0.4687,-0.4685,-0.4683,0,0,0,0,0,0,-0.4109,-0.4123,-0.4264,-0.4211,-0.4231,-0.4327,-0.4354,-0.4371,-0.4396,-0.449,-0.4508,-0.4449,-0.4578,-0.4593,-0.4619,-0.4598,-0.4661,-0.4665,-0.4689,-0.4687,-0.4684,-0.4577,0,0,0,0,0,0,-0.4103,-0.4121,-0.4118,-0.421,-0.4234,-0.4281,-0.4353,-0.4373,-0.4402,-0.4412,-0.45,-0.4517,-0.4581,-0.4612,-0.4623,-0.4605,-0.4668,-0.4692,-0.4688,-0.4685,-0.4583,-0.4571,-0.4561,0,0,0,0,0,-0.4097,-0.4082,-0.4117,-0.4132,-0.4232,-0.428,-0.4293,-0.4368,-0.44,-0.4398,-0.4458,-0.4514,-0.4599,-0.4614,-0.4627,-0.461,-0.4693,-0.4689,-0.4685,-0.4588,-0.4574,-0.4562,0,0,0,0,0,0,-0.3985,-0.4096,-0.4136,-0.4151,-0.4205,-0.43,-0.4299,-0.435,-0.4396,-0.4403,-0.4494,-0.4512,-0.4529,-0.4573,-0.4587,-0.4604,-0.4653,-0.4652,-0.4575,-0.4562,-0.4551,-0.454,-0.4672,0,0,0,0,0,-0.3962,-0.3992,-0.4088,-0.4092,-0.4117,-0.4203,-0.4227,-0.4279,-0.4339,-0.4362,-0.4425,-0.448,-0.452,-0.4544,-0.4585,-0.4591,-0.4611,-0.4585,-0.4574,-0.4565,-0.4562,-0.4568,-0.4557,-0.467,-0.467,-0.467,0,0,-0.3915,-0.398,-0.3993,-0.4071,-0.4119,-0.4148,-0.4221,-0.4249,-0.4271,-0.4367,-0.4395,-0.4442,-0.4511,-0.4526,-0.4536,-0.4563,-0.4536,-0.456,-0.4552,-0.4554,-0.4562,-0.4552,-0.4542,-0.4667,-0.4668,-0.4668,0,0,-0.3844,-0.3896,-0.3905,-0.3952,-0.4024,-0.4081,-0.4083,-0.417,-0.4205,-0.4235,-0.4307,-0.4335,-0.4401,-0.4446,-0.4478,-0.4423,-0.4476,-0.4434,-0.4377,-0.4381,-0.4372,-0.4365,-0.4344,-0.4336,-0.4432,-0.4431,-0.4431,0,-0.3776,-0.3823,-0.3903,-0.3926,-0.3958,-0.4046,-0.4055,-0.4097,-0.4178,-0.4198,-0.4227,-0.4311,-0.4364,-0.439,-0.4377,-0.44,-0.4405,-0.4424,-0.4367,-0.436,-0.4355,-0.4336,-0.4328,-0.4426,-0.4426,-0.4427,-0.4427,0,-0.3736,-0.3767,-0.3765,-0.3842,-0.3874,-0.3889,-0.3972,-0.3994,-0.4044,-0.4098,-0.4127,-0.4192,-0.4248,-0.4259,-0.4308,-0.4293,-0.4307,-0.435,-0.4401,-0.4337,-0.4321,-0.4314,-0.4418,-0.442,-0.4421,-0.4423,0,0,-0.3598,-0.3718,-0.3716,-0.3752,-0.3838,-0.3863,-0.3883,-0.3938,-0.3955,-0.4008,-0.4026,-0.408,-0.412,-0.4156,-0.4211,-0.4215,-0.4166,-0.4258,-0.4261,-0.4237,-0.4152,-0.4118,-0.4109,-0.4202,-0.4201,-0.42,-0.4146,0,-0.354,-0.3581,-0.3653,-0.367,-0.3699,-0.3783,-0.38,-0.3854,-0.3905,-0.3937,-0.3994,-0.403,-0.4081,-0.4103,-0.4111,-0.417,-0.415,-0.4175,-0.4219,-0.422,-0.4198,-0.4101,-0.4065,-0.4011,-0.4141,-0.414,-0.4139,0,-0.3478,-0.3526,-0.3545,-0.3628,-0.3644,-0.3657,-0.3713,-0.3743,-0.3806,-0.3843,-0.3882,-0.3942,-0.3967,-0.4014,-0.4049,-0.4064,-0.4087,-0.4118,-0.4118,-0.4124,-0.4174,-0.4103,-0.3996,-0.3987,-0.413,-0.4131,-0.4131,0,-0.3374,-0.3444,-0.3464,-0.3492,-0.359,-0.3598,-0.3639,-0.3704,-0.3732,-0.378,-0.3799,-0.385,-0.3877,-0.3915,-0.3987,-0.4015,-0.4014,-0.4067,-0.4044,-0.4042,-0.4039,-0.4038,-0.3933,-0.4055,-0.4055,-0.4055,-0.4055,0,-0.3301,-0.3309,-0.3419,-0.3431,-0.3443,-0.3526,-0.3535,-0.3584,-0.3641,-0.3664,-0.374,-0.376,-0.3855,-0.3885,-0.3942,-0.3962,-0.3974,-0.4004,-0.4018,-0.3996,-0.3992,-0.4011,-0.4017,-0.4053,-0.4054,-0.4054,-0.4054,0,-0.3187,-0.3261,-0.3288,-0.3378,-0.3401,-0.3406,-0.3483,-0.3498,-0.3553,-0.3582,-0.3593,-0.368,-0.372,-0.3796,-0.3857,-0.3895,-0.3902,-0.3929,-0.3881,-0.389,-0.3862,-0.3863,-0.3764,-0.3755,-0.3883,-0.3882,-0.3881,0,-0.3135,-0.3143,-0.3234,-0.3255,-0.3293,-0.3326,-0.3355,-0.3437,-0.3464,-0.3536,-0.3542,-0.3588,-0.3629,-0.3689,-0.3758,-0.3805,-0.3832,-0.3795,-0.384,-0.3817,-0.3831,-0.3829,-0.383,-0.3784,-0.3782,-0.378,-0.3779,0,-0.3035,-0.3071,-0.3109,-0.316,-0.3193,-0.3237,-0.3285,-0.3298,-0.3391,-0.3417,-0.3459,-0.3491,-0.3554,-0.3598,-0.3655,-0.3698,-0.3753,-0.3764,-0.3762,-0.3739,-0.371,-0.3724,-0.3851,-0.3766,-0.3768,-0.3768,-0.3769,-0.377,-0.295,-0.2961,-0.3026,-0.3066,-0.3111,-0.3154,-0.3173,-0.323,-0.3266,-0.3324,-0.337,-0.3408,-0.347,-0.3553,-0.3591,-0.3622,-0.3649,-0.3645,-0.3644,-0.3641,-0.3631,-0.3706,-0.3633,-0.3633,-0.3634,-0.3634,-0.3635,0,-0.2853,-0.2899,-0.2935,-0.3,-0.3031,-0.3081,-0.3137,-0.316,-0.3192,-0.3246,-0.3285,-0.3332,-0.3376,-0.3447,-0.3496,-0.3507,-0.3534,-0.3517,-0.3516,-0.3525,-0.3605,-0.3602,-0.3494,-0.3494,-0.3494,-0.3494,-0.3494,-0.3494,-0.2806,-0.2827,-0.287,-0.2914,-0.296,-0.2998,-0.3025,-0.3065,-0.3108,-0.3157,-0.3194,-0.324,-0.3301,-0.3355,-0.3397,-0.3417,-0.3431,-0.3405,-0.3433,-0.3507,-0.352,-0.3532,-0.353,-0.3408,-0.3408,-0.3351,-0.335,-0.3349]},{"header":{"parameterUnit":"m.s-1","parameterCategory":1,"la1":30.2991,"la2":30.254,"lo1":-89.0895,"lo2":-89.0444,"dy":0.0017,"dx":0.0017,"nx":28,"ny":28,"refTime":"2023-09-01T21:00:00:Z","depth":0,"parameterNumber":3,"parameterNumberName":"V-component_of_WINDS"},"data":[0,0,0,0,0,0,0,0,0,0,0,0,0,0,0,0,0,0,0,0,0,0,0,0,0,0,0,0,0,0,0,0,0,0,0,0,0,0,0,0,0,0,0,0,0,0,0,0,0,0,0,0,0,0,0,0,0,0,1.4398,1.4399,0,1.4475,1.4476,1.4477,1.4408,1.4405,1.4402,1.4399,1.4477,1.4482,1.4486,0,0,0,0,0,0,0,0,0,0,0,0,0,1.4192,1.4196,1.4398,1.4399,1.44,1.4475,1.4476,1.4477,1.4408,1.4405,1.4401,1.4398,1.4475,1.4481,1.4487,0,0,0,0,0,0,0,0,0,0,0,0,0,1.4276,1.4197,1.4398,1.4375,1.4374,1.4475,1.4476,1.4477,1.4409,1.4405,1.44,1.4397,1.4474,1.448,1.4487,1.4615,0,0,1.4509,1.4512,0,0,0,0,0,0,0,0,1.4271,1.4284,1.4377,1.4377,1.4375,1.4427,1.4431,1.4523,1.441,1.4395,1.4399,1.4395,1.4464,1.4471,1.4495,1.4618,1.4622,1.4509,1.4514,1.4517,1.4519,0,0,0,0,0,0,0,1.4266,1.428,1.4428,1.4379,1.4378,1.436,1.4368,1.4448,1.4452,1.4396,1.4392,1.4402,1.4462,1.4488,1.4496,1.4623,1.4509,1.4515,1.452,1.4523,1.4856,1.486,0,0,0,0,0,0,1.4262,1.4276,1.4426,1.4431,1.4312,1.4368,1.4376,1.4415,1.4451,1.4453,1.4405,1.4398,1.4478,1.4488,1.4499,1.4651,1.4517,1.4523,1.4527,1.4851,1.4857,1.4862,0,0,0,0,0,0,1.4258,1.4276,1.4423,1.4352,1.4369,1.4376,1.442,1.4419,1.4444,1.4458,1.4458,1.4431,1.4476,1.4489,1.4587,1.4653,1.4526,1.4533,1.4846,1.4853,1.4859,1.4957,0,0,0,0,0,0,1.4253,1.4275,1.4324,1.4354,1.4373,1.451,1.4424,1.4423,1.4457,1.4448,1.4482,1.4484,1.4473,1.4577,1.4594,1.466,1.4538,1.484,1.4849,1.4857,1.4948,1.4966,1.4982,0,0,0,0,0,1.4245,1.4348,1.4327,1.4345,1.4434,1.4514,1.4525,1.4512,1.4462,1.4511,1.452,1.4483,1.4643,1.4587,1.4606,1.4675,1.4836,1.4846,1.4856,1.494,1.4962,1.4981,0,0,0,0,0,0,1.4325,1.4351,1.4328,1.4443,1.4477,1.4502,1.4563,1.4536,1.4584,1.4574,1.4554,1.4563,1.4666,1.468,1.4618,1.4801,1.4731,1.4746,1.4788,1.481,1.4827,1.4821,1.4544,0,0,0,0,0,1.4356,1.4419,1.4438,1.4538,1.4556,1.4557,1.4591,1.4578,1.4612,1.4626,1.4641,1.4676,1.4734,1.4772,1.4826,1.4949,1.4956,1.5006,1.5023,1.5037,1.505,1.5117,1.514,1.4896,1.4896,1.4896,0,0,1.4421,1.4443,1.4483,1.4555,1.4579,1.4645,1.457,1.4642,1.469,1.4636,1.473,1.4743,1.478,1.4891,1.4941,1.4906,1.5119,1.5051,1.5062,1.5067,1.5131,1.5154,1.5174,1.4903,1.4902,1.4901,0,0,1.4572,1.4595,1.4681,1.4707,1.4746,1.4746,1.4767,1.4797,1.4803,1.4897,1.4859,1.4916,1.5016,1.5044,1.5072,1.5235,1.5203,1.5253,1.5343,1.5409,1.5428,1.5445,1.5504,1.5525,1.5266,1.5267,1.5267,0,1.4647,1.4745,1.4728,1.4804,1.4837,1.4792,1.4879,1.4905,1.4959,1.4983,1.4943,1.5069,1.5091,1.5208,1.5248,1.5272,1.5295,1.525,1.5427,1.5443,1.5459,1.5515,1.5537,1.5272,1.5272,1.5271,1.5271,0,1.4836,1.4904,1.4969,1.5023,1.5063,1.5144,1.514,1.5182,1.5166,1.517,1.5267,1.5291,1.535,1.5377,1.5361,1.5493,1.5471,1.5429,1.5359,1.5489,1.5541,1.5562,1.5281,1.5279,1.5277,1.5276,0,0,1.5039,1.5084,1.5108,1.5133,1.5173,1.5225,1.5304,1.5362,1.5399,1.5438,1.5504,1.5591,1.5553,1.5585,1.5572,1.5629,1.5758,1.5581,1.5581,1.5614,1.5906,1.5938,1.5963,1.5737,1.5741,1.5744,1.5903,0,1.5193,1.5331,1.5319,1.545,1.5513,1.5472,1.5541,1.5572,1.5579,1.5634,1.564,1.5702,1.5647,1.5666,1.5721,1.5731,1.5817,1.5719,1.5799,1.5802,1.5791,1.599,1.6023,1.6172,1.5924,1.5927,1.593,0,1.539,1.5437,1.5574,1.5605,1.5632,1.5694,1.5747,1.5799,1.5835,1.5835,1.5871,1.5849,1.5929,1.5856,1.5967,1.5901,1.5932,1.5942,1.5948,1.5955,1.5874,1.6003,1.6219,1.6242,1.5962,1.5959,1.5957,0,1.5526,1.5623,1.5718,1.574,1.5779,1.5824,1.5842,1.5873,1.5909,1.5955,1.5978,1.6033,1.6063,1.6106,1.6099,1.6047,1.6212,1.6139,1.6215,1.6216,1.6252,1.625,1.6477,1.6272,1.6272,1.6271,1.6271,0,1.5699,1.5784,1.578,1.5838,1.5934,1.5919,1.6014,1.6026,1.6055,1.6115,1.6082,1.614,1.6127,1.6184,1.6179,1.6272,1.6285,1.6288,1.6286,1.6292,1.6292,1.6313,1.6303,1.6277,1.6276,1.6275,1.6274,0,1.5866,1.5866,1.5967,1.5996,1.6005,1.6074,1.6098,1.6154,1.6158,1.6235,1.6252,1.6259,1.6324,1.6322,1.6396,1.6392,1.6507,1.6492,1.6495,1.6493,1.657,1.6563,1.6819,1.6852,1.6625,1.6627,1.6629,0,1.5977,1.6042,1.6078,1.6116,1.6138,1.62,1.6237,1.6225,1.6265,1.6311,1.6361,1.6424,1.6474,1.6581,1.6592,1.6649,1.6636,1.6722,1.6644,1.6648,1.6638,1.6635,1.6642,1.6737,1.674,1.6742,1.6743,0,1.6173,1.6171,1.6225,1.6281,1.6326,1.6369,1.6408,1.6441,1.6434,1.648,1.6548,1.6586,1.6663,1.6726,1.6781,1.6799,1.6771,1.6768,1.6789,1.6795,1.6795,1.6797,1.6538,1.6762,1.676,1.6759,1.6758,1.6757,1.6316,1.6373,1.6407,1.647,1.6498,1.6536,1.659,1.6601,1.6657,1.6719,1.6708,1.6784,1.6819,1.689,1.6913,1.6972,1.6942,1.6972,1.698,1.6988,1.6997,1.6785,1.6982,1.6982,1.6981,1.6981,1.698,0,1.6512,1.6532,1.659,1.6647,1.6696,1.6665,1.6707,1.6751,1.6818,1.6852,1.6902,1.698,1.7042,1.7058,1.7118,1.7162,1.715,1.7178,1.7175,1.718,1.702,1.6997,1.7186,1.7186,1.7186,1.7186,1.7186,1.7186,1.662,1.6714,1.6716,1.6824,1.6844,1.6918,1.6945,1.698,1.7008,1.7097,1.7148,1.7158,1.7186,1.7247,1.7302,1.7306,1.7329,1.7363,1.7361,1.7211,1.7191,1.7171,1.7149,1.7368,1.7368,1.7516,1.7517,1.7518]}]]